Location: Grand Rapids
(42.9630°N, 85.6680°W)
Time: 02:59:44
(UTC-04:00)

Vanguard 2 - All Passes

Search period start: 30 May 2024 00:00
Search period end: 09 June 2024 00:00
Orbit: 552 x 2914 km, 32.9° (Epoch: 29 May)

Date Brightness Start Highest point End Pass type
(mag) Time Alt. Az. Time Alt. Az. Time Alt. Az.
30 May - 13:30:44 10° SSW 13:37:31 20° SSE 13:42:31 10° ESE daylight
30 May - 15:39:11 10° SW 15:45:49 29° S 15:50:23 10° ESE daylight
30 May - 17:48:55 10° WSW 17:53:21 24° SSW 17:56:49 10° SE daylight
31 May - 11:39:34 10° SSE 11:42:49 11° SSE 11:45:44 10° SE daylight
31 May - 13:43:52 10° SSW 13:51:48 25° SSE 13:57:20 10° ESE daylight
31 May - 15:53:13 10° WSW 16:00:03 32° S 16:04:42 10° ESE daylight
31 May - 18:03:20 10° WSW 18:07:27 21° SSW 18:10:46 10° SSE daylight
01 Jun - 11:50:17 10° S 11:57:06 16° SSE 12:02:32 10° ESE daylight
01 Jun - 13:57:21 10° SW 14:06:05 30° SSE 14:11:55 10° ESE daylight
01 Jun - 16:07:22 10° WSW 16:14:16 33° S 16:18:54 10° ESE daylight
01 Jun - 18:17:54 10° WSW 18:21:31 18° SSW 18:24:29 10° SSE daylight
02 Jun - 12:02:32 10° SSW 12:11:23 21° SSE 12:17:55 10° ESE daylight
02 Jun - 14:11:05 10° SW 14:20:21 34° S 14:26:21 10° ESE daylight
02 Jun - 16:21:36 10° WSW 16:28:26 33° S 16:33:03 10° SE daylight
02 Jun - 18:32:45 10° WSW 18:35:30 14° SSW 18:37:53 10° S daylight
03 Jun - 10:12:32 10° SSE 10:16:08 11° SSE 10:19:26 10° SE daylight
03 Jun - 12:15:24 10° SSW 12:25:39 27° SSE 12:32:50 10° ESE daylight
03 Jun - 14:25:01 10° WSW 14:34:35 38° S 14:40:40 10° ESE daylight
03 Jun - 16:35:55 10° WSW 16:42:34 31° SSW 16:47:06 10° SE daylight
03 Jun - 18:48:36 10° SW 18:49:25 10° SSW 18:50:12 10° SSW daylight
04 Jun - 10:22:26 10° S 10:30:20 16° SSE 10:36:53 10° ESE daylight
04 Jun - 12:28:39 10° SW 12:39:54 32° SSE 12:47:28 10° ESE daylight
04 Jun - 14:39:04 10° WSW 14:48:49 40° S 14:54:56 10° ESE daylight
04 Jun - 16:50:18 10° WSW 16:56:38 28° SSW 17:01:03 10° SE daylight
05 Jun - 10:34:14 10° SSW 10:44:31 22° SSE 10:52:32 10° ESE daylight
05 Jun - 12:42:12 10° SW 12:54:09 37° SSE 13:01:56 10° ESE daylight
05 Jun - 14:53:13 10° WSW 15:03:00 42° S 15:09:07 10° ESE daylight
05 Jun - 17:04:48 10° WSW 17:10:38 24° SSW 17:14:50 10° SSE daylight
06 Jun - 10:46:45 10° SSW 10:58:43 27° SSE 11:07:37 10° ESE daylight
06 Jun - 12:55:58 10° SW 13:08:23 42° S 13:16:17 10° ESE daylight
06 Jun - 15:07:27 10° WSW 15:17:09 41° S 15:23:14 10° ESE daylight
06 Jun - 17:19:27 10° WSW 17:24:33 20° SSW 17:28:23 10° SSE daylight
07 Jun - 08:55:23 10° S 09:03:00 15° SE 09:09:46 10° ESE daylight
07 Jun - 10:59:45 10° SSW 11:12:54 33° SSE 11:22:20 10° E daylight
07 Jun - 13:09:54 10° WSW 13:22:35 45° S 13:30:33 10° ESE daylight
07 Jun - 15:21:45 10° WSW 15:31:15 39° SSW 15:37:16 10° SE daylight
07 Jun - 17:34:25 10° WSW 17:38:23 15° SW 17:41:35 10° S daylight
08 Jun - 09:06:28 10° S 09:17:03 20° SE 09:26:02 10° ESE daylight
08 Jun - 11:13:04 10° SW 11:27:05 38° SSE 11:36:53 10° E daylight
08 Jun - 13:23:57 10° WSW 13:36:47 48° S 13:44:46 10° ESE daylight
08 Jun - 15:36:07 10° W 15:45:18 36° SSW 15:51:11 10° SE daylight
08 Jun - 17:50:12 10° WSW 17:52:07 11° SW 17:53:51 10° SSW daylight
